Location: Unspecified
(52.4292°N, 19.3359°E)
Time: 23:19:35
(UTC+02:00)

Altair - Pass Details

Date: 25 May 2024
Orbit: 1502 x 1682 km, 47.2° (Epoch: 19 June)

Event Time Altitude Azimuth Distance (km) Brightness Sun altitude
Rises 15:07:07 0° 281° (WNW) 4,905 10.6 47.8°
Reaches altitude 10° 15:10:22 10° 277° (W) 3,930 10.3 47.4°
Maximum altitude 15:19:54 49° 207° (SSW) 2,082 9.8 46.1°
Drops below altitude 10° 15:29:25 10° 137° (SE) 3,923 9.6 44.8°
Sets 15:32:41 0° 132° (SE) 4,896 10.0 44.4°
